Weather in Al-Qusayr

Egypt     26°06′43″N   34°16′16″E
В апреле 2022 года жителям России запретили посещать сайт meteo.paraplan.net по решению Генеральной прокуратуры. Аудитория сайта уменьшилась в 10 раз. Владельцы сайта не видят смысла в поддержке погодного сервера в таких условиях. Сайт будет закрыт в октябре.
temp.,
°C
wind,
m/s
gust,
m/s
humid.,
%
clouds,
%
prec.,
mm/h
press.,
hPa
HPBL,
m
25 september, sun
sun2523:00+29wnw22280 0.0 100911
02:00+29w22270 0.0 100811
05:00+27nw34350 0.0 100950
08:00+31n811380 0.0 1011535
11:00+34n89340 0.0 1010673
14:00+34n66310 0.0 1008694
17:00+33n45320 0.0 1008232
20:00+30nnw23360 0.0 100923
26 september, mon
mon2623:00+30w22310 0.0 100913
02:00+29nw23315 0.0 100924
05:00+27nw34370 0.0 101048
08:00+32n89390 0.0 1011577
11:00+33nne77360 0.0 1011636
14:00+34nne54360 0.0 1009601
17:00+31n43450 0.0 1009325
20:00+29nw22450 0.0 101017
27 september, tue
tue2723:00+29nw33340 0.0 100914
02:00+27w22430 0.0 101020
05:00+27w22390 0.0 101015
08:00+32nnw46321 0.0 1011337
11:00+35nne66290 0.0 1010554
14:00+36n54261 0.0 1009573
17:00+33ene23343 0.0 1008185
20:00+29w11391 0.0 100911
28 september, wed
wed2823:00+29wnw12290 0.0 100911
02:00+29nnw33343 0.0 100920
05:00+26nw12390 0.0 101031
08:00+31n58350 0.0 1011396
11:00+35n78291 0.0 1010602
14:00+35nne66274 0.0 1008564
17:00+33n35310 0.0 1008253
20:00+30nw22321 0.0 100913
29 september, thu
thu2923:00+29nw22290 0.0 100912
02:00+28nw22290 0.0 100815
05:00+27wnw33310 0.0 100926
08:00+32nnw58260 0.0 1009409
11:00+36n76220 0.0 1009657
14:00+36nne65230 0.0 1007606
17:00+33n34250 0.0 1007168
20:00+31wsw22240 0.0 100711